LXP312 SCCI-SCTE

Flight info

Callsign LXP312
Flight time N/A
Altitude 34000
Route SIRUN4A SIRUN UQ802 CAUKE CAUKE5B
Aircraft A20N/M-SDE2E3FGHIRWXY/LB1

Departure

Time 2026-04-19 23:27
Airport President Carlos Ibáñez International Airport (SCCI)

Arrival

Time N/A
Airport El Tepual International Airport (SCTE)
Time Latitude Longitude Altitude Speed Heading
2026-04-19 23:24 -53.01344 -70.84563 148 ft 0 kts 317°
2026-04-19 23:26 -53.01318 -70.84603 148 ft 28 kts 317°
2026-04-19 23:26 -53.00985 -70.85093 146 ft 99 kts 318°
2026-04-19 23:27 -53.00320 -70.86051 149 ft 152 kts 319°
2026-04-19 23:27 -52.99466 -70.87203 674 ft 153 kts 323°
2026-04-19 23:27 -52.98575 -70.88291 1253 ft 163 kts 326°
2026-04-19 23:27 -52.97631 -70.89421 1852 ft 171 kts 324°
2026-04-19 23:28 -52.96668 -70.90592 2492 ft 173 kts 324°
2026-04-19 23:28 -52.95645 -70.91806 2957 ft 191 kts 324°
2026-04-19 23:28 -52.94503 -70.93173 3414 ft 213 kts 323°
2026-04-19 23:28 -52.93273 -70.94699 3988 ft 226 kts 321°
2026-04-19 23:29 -52.92749 -70.95357 4258 ft 233 kts 321°
2026-04-19 23:30 -52.92548 -70.95610 4337 ft 234 kts 320°
2026-04-19 23:30 -52.91603 -70.96605 4808 ft 240 kts 326°
2026-04-19 23:31 -52.90999 -70.97197 4946 ft 250 kts 325°
2026-04-19 23:31 -52.89289 -70.98940 3743 ft 325 kts 325°
2026-04-19 23:31 -52.87364 -71.00760 4717 ft 301 kts 327°
2026-04-19 23:31 -52.85769 -71.02229 6420 ft 244 kts 326°
2026-04-19 23:32 -52.84229 -71.03626 6803 ft 257 kts 321°
2026-04-19 23:32 -52.82868 -71.05507 6944 ft 255 kts 306°
2026-04-19 23:32 -52.81787 -71.07827 7001 ft 254 kts 299°
2026-04-19 23:32 -52.80774 -71.10215 7006 ft 253 kts 303°
2026-04-19 23:33 -52.79624 -71.12414 7011 ft 254 kts 309°
2026-04-19 23:33 -52.78420 -71.14544 7006 ft 253 kts 307°
2026-04-19 23:33 -52.77273 -71.16763 7018 ft 253 kts 311°
2026-04-19 23:33 -52.75921 -71.18658 7019 ft 259 kts 324°
2026-04-19 23:34 -52.74347 -71.20156 7338 ft 263 kts 327°
2026-04-19 23:34 -52.72763 -71.21676 8168 ft 263 kts 324°
2026-04-19 23:34 -52.71224 -71.23326 9072 ft 264 kts 321°
2026-04-19 23:34 -52.69718 -71.25100 9841 ft 270 kts 319°
2026-04-19 23:35 -52.68163 -71.26868 10633 ft 272 kts 321°
2026-04-19 23:35 -52.66547 -71.28614 11013 ft 292 kts 320°
2026-04-19 23:35 -52.64784 -71.30583 11269 ft 313 kts 319°
2026-04-19 23:35 -52.63452 -71.31989 11596 ft 322 kts 320°
2026-04-19 23:38 -52.61637 -71.34129 12361 ft 321 kts 313°
2026-04-19 23:38 -52.59955 -71.36537 13075 ft 323 kts 310°
2026-04-19 23:38 -52.58298 -71.39077 13695 ft 327 kts 310°
2026-04-19 23:38 -52.56621 -71.41663 14315 ft 333 kts 311°
2026-04-19 23:39 -52.54885 -71.44209 14970 ft 337 kts 313°
2026-04-19 23:39 -52.53078 -71.46703 15619 ft 342 kts 314°
2026-04-19 23:39 -52.51197 -71.49148 16203 ft 347 kts 316°
2026-04-19 23:39 -52.49254 -71.51552 16800 ft 352 kts 317°
2026-04-19 23:40 -52.47262 -71.53947 17348 ft 357 kts 317°
2026-04-19 23:40 -52.45241 -71.56359 17904 ft 361 kts 317°
2026-04-19 23:40 -52.43227 -71.58776 18435 ft 366 kts 317°
2026-04-19 23:40 -52.41166 -71.61264 18982 ft 370 kts 317°
2026-04-19 23:41 -52.39098 -71.63816 19447 ft 375 kts 316°
2026-04-19 23:41 -52.37016 -71.66428 19930 ft 379 kts 316°
2026-04-19 23:41 -52.34918 -71.69090 20433 ft 383 kts 315°
2026-04-19 23:41 -52.32808 -71.71789 20904 ft 388 kts 315°
2026-04-19 23:42 -52.31944 -71.72895 21097 ft 390 kts 315°
2026-04-19 23:43 -52.30507 -71.74777 20015 ft 410 kts 316°
2026-04-19 23:43 -52.27867 -71.77589 17494 ft 477 kts 322°
2026-04-19 23:43 -52.25183 -71.80603 17190 ft 449 kts 317°
2026-04-19 23:43 -52.23043 -71.83370 19340 ft 346 kts 313°
2026-04-19 23:44 -52.21285 -71.85803 20843 ft 331 kts 310°
2026-04-19 23:44 -52.19495 -71.88334 20926 ft 350 kts 312°
2026-04-19 23:44 -52.17572 -71.90928 21050 ft 366 kts 314°
2026-04-19 23:44 -52.15556 -71.93515 21186 ft 381 kts 315°
2026-04-19 23:45 -52.13400 -71.96173 21380 ft 394 kts 316°
2026-04-19 23:45 -52.11181 -71.98843 21831 ft 399 kts 316°
2026-04-19 23:45 -52.08987 -72.01620 22288 ft 399 kts 311°
2026-04-19 23:45 -52.06992 -72.04768 22649 ft 398 kts 301°
2026-04-19 23:46 -52.05509 -72.08506 23078 ft 392 kts 290°
2026-04-19 23:46 -52.04235 -72.12446 23511 ft 396 kts 290°
2026-04-19 23:46 -52.02901 -72.16387 23927 ft 401 kts 292°
2026-04-19 23:46 -52.01480 -72.20317 24365 ft 405 kts 293°
2026-04-19 23:47 -52.00003 -72.24227 24827 ft 408 kts 294°
2026-04-19 23:47 -51.98496 -72.28128 25301 ft 409 kts 294°
2026-04-19 23:47 -51.96968 -72.32050 25686 ft 412 kts 294°
2026-04-19 23:47 -51.95434 -72.35986 26115 ft 413 kts 293°
2026-04-19 23:48 -51.94505 -72.38667 26376 ft 412 kts 291°
2026-04-19 23:48 -51.93190 -72.42792 26701 ft 414 kts 291°
2026-04-19 23:48 -51.92585 -72.44606 26855 ft 415 kts 292°
2026-04-19 23:50 -51.91503 -72.47542 28604 ft 354 kts 294°
2026-04-19 23:50 -51.90219 -72.50785 30057 ft 334 kts 296°
2026-04-19 23:50 -51.88860 -72.53888 30209 ft 341 kts 297°
2026-04-19 23:50 -51.87723 -72.56437 29822 ft 348 kts 296°
2026-04-19 23:51 -51.86198 -72.60003 27411 ft 428 kts 299°
2026-04-19 23:51 -51.84170 -72.63846 26881 ft 458 kts 307°
2026-04-19 23:51 -51.81973 -72.67551 27269 ft 456 kts 308°
2026-04-19 23:51 -51.79721 -72.71188 27478 ft 459 kts 309°
2026-04-19 23:52 -51.77372 -72.74741 27596 ft 467 kts 313°
2026-04-19 23:52 -51.74784 -72.77981 27659 ft 476 kts 319°
2026-04-19 23:52 -51.71934 -72.80747 28009 ft 479 kts 327°
2026-04-19 23:52 -51.68904 -72.83132 28084 ft 488 kts 330°
2026-04-19 23:53 -51.65758 -72.85291 28246 ft 492 kts 333°
2026-04-19 23:53 -51.62581 -72.87274 28650 ft 489 kts 333°
2026-04-19 23:53 -51.59409 -72.89266 28797 ft 490 kts 332°
2026-04-19 23:53 -51.56237 -72.91342 28945 ft 490 kts 331°
2026-04-19 23:54 -51.53123 -72.93510 29158 ft 486 kts 329°
2026-04-19 23:54 -51.50132 -72.95877 29308 ft 485 kts 326°
2026-04-19 23:54 -51.48040 -72.97779 29420 ft 481 kts 323°
2026-04-19 23:55 -51.45274 -73.00471 26207 ft 497 kts 326°
2026-04-19 23:55 -51.42078 -73.02756 22075 ft 505 kts 331°
2026-04-19 23:55 -51.38851 -73.04960 18233 ft 505 kts 334°
2026-04-19 23:55 -51.35504 -73.06928 14459 ft 509 kts 338°
2026-04-19 23:56 -51.32179 -73.08509 11524 ft 283 kts 342°
2026-04-19 23:56 -51.30556 -73.08430 12700 ft 229 kts 15°
2026-04-19 23:56 -51.29778 -73.07500 12778 ft 238 kts 48°
2026-04-20 00:00 -51.29363 -73.05641 10924 ft 282 kts 99°
2026-04-20 00:00 -51.30884 -73.03815 6483 ft 343 kts 212°
2026-04-20 00:00 -51.31484 -73.05279 4743 ft 348 kts 281°